Time,TemperatureF,DewpointF,PressureIn,WindDirection,WindDirectionDegrees,WindSpeedMPH,WindSpeedGustMPH,Humidity,HourlyPrecipIn,Conditions,Clouds,dailyrainin,SoftwareType,DateUTC
2013-04-05 00:24:00,42.0,29.0,30.02,SW,226,0.0,0.0,61,0.00,,,0.00,weatherlink.com 1.10,2013-04-05 04:24:00,
2013-04-05 00:39:00,41.6,29.0,30.02,SW,226,0.0,0.0,62,0.00,,,0.00,weatherlink.com 1.10,2013-04-05 04:39:00,
2013-04-05 00:54:00,40.8,29.0,30.02,SW,226,0.0,0.0,62,0.00,,,0.00,weatherlink.com 1.10,2013-04-05 04:54:00,
2013-04-05 01:09:00,40.1,28.0,30.01,SW,226,0.0,0.0,63,0.00,,,0.00,weatherlink.com 1.10,2013-04-05 05:09:00,
2013-04-05 01:24:00,39.9,30.0,30.01,SW,226,0.0,0.0,67,0.00,,,0.00,weatherlink.com 1.10,2013-04-05 05:24:00,
2013-04-05 01:39:00,39.7,29.0,30.00,SW,226,0.0,0.0,67,0.00,,,0.00,weatherlink.com 1.10,2013-04-05 05:39:00,
2013-04-05 01:54:00,39.4,28.0,30.00,SW,226,0.0,1.0,65,0.00,,,0.00,weatherlink.com 1.10,2013-04-05 05:54:00,
2013-04-05 02:09:00,39.1,29.0,30.00,SW,226,0.0,0.0,66,0.00,,,0.00,weatherlink.com 1.10,2013-04-05 06:09:00,
2013-04-05 02:24:00,38.7,29.0,29.99,SW,226,0.0,0.0,69,0.00,,,0.00,weatherlink.com 1.10,2013-04-05 06:24:00,
2013-04-05 02:39:00,38.3,30.0,29.99,SW,226,0.0,0.0,71,0.00,,,0.00,weatherlink.com 1.10,2013-04-05 06:39:00,
2013-04-05 02:54:00,37.7,29.0,29.98,SW,226,0.0,0.0,72,0.00,,,0.00,weatherlink.com 1.10,2013-04-05 06:54:00,
2013-04-05 03:09:00,36.9,29.0,29.99,SW,226,0.0,0.0,73,0.00,,,0.00,weatherlink.com 1.10,2013-04-05 07:09:00,
2013-04-05 03:24:00,36.1,28.0,29.98,SW,226,0.0,0.0,73,0.00,,,0.00,weatherlink.com 1.10,2013-04-05 07:24:00,
2013-04-05 03:39:00,35.3,29.0,29.98,SW,226,0.0,0.0,78,0.00,,,0.00,weatherlink.com 1.10,2013-04-05 07:39:00,
2013-04-05 03:54:00,34.4,29.0,29.99,SW,226,0.0,0.0,79,0.00,,,0.00,weatherlink.com 1.10,2013-04-05 07:54:00,
2013-04-05 04:09:00,33.6,28.0,29.99,NNW,329,0.0,1.0,79,0.00,,,0.00,weatherlink.com 1.10,2013-04-05 08:09:00,
2013-04-05 04:24:00,33.0,27.0,29.99,NNW,329,0.0,0.0,78,0.00,,,0.00,weatherlink.com 1.10,2013-04-05 08:24:00,
2013-04-05 04:40:00,32.5,28.0,29.99,NNW,329,0.0,1.0,82,0.00,,,0.00,weatherlink.com 1.10,2013-04-05 08:40:00,
2013-04-05 04:55:00,32.3,27.0,30.00,NNW,329,0.0,0.0,82,0.00,,,0.00,weatherlink.com 1.10,2013-04-05 08:55:00,
2013-04-05 05:10:00,32.0,27.0,30.01,NNW,329,0.0,0.0,81,0.00,,,0.00,weatherlink.com 1.10,2013-04-05 09:10:00,
2013-04-05 05:25:00,31.9,27.0,30.01,NNW,329,0.0,0.0,82,0.00,,,0.00,weatherlink.com 1.10,2013-04-05 09:25:00,
2013-04-05 05:40:00,31.6,27.0,30.01,NNW,329,0.0,1.0,83,0.00,,,0.00,weatherlink.com 1.10,2013-04-05 09:40:00,
2013-04-05 05:55:00,31.2,27.0,30.01,NNW,329,0.0,0.0,83,0.00,,,0.00,weatherlink.com 1.10,2013-04-05 09:55:00,
2013-04-05 06:10:00,30.7,26.0,30.02,NNW,329,0.0,0.0,84,0.00,,,0.00,weatherlink.com 1.10,2013-04-05 10:10:00,
2013-04-05 06:25:00,30.1,26.0,30.02,NNW,329,0.0,1.0,84,0.00,,,0.00,weatherlink.com 1.10,2013-04-05 10:25:00,
2013-04-05 06:40:00,29.7,26.0,30.02,NNW,329,0.0,0.0,85,0.00,,,0.00,weatherlink.com 1.10,2013-04-05 10:40:00,
2013-04-05 06:55:00,29.2,25.0,30.03,NNW,329,0.0,1.0,85,0.00,,,0.00,weatherlink.com 1.10,2013-04-05 10:55:00,
2013-04-05 07:10:00,29.0,25.0,30.03,NNW,329,0.0,0.0,86,0.00,,,0.00,weatherlink.com 1.10,2013-04-05 11:10:00,
2013-04-05 07:25:00,29.0,25.0,30.03,NNW,329,0.0,1.0,86,0.00,,,0.00,weatherlink.com 1.10,2013-04-05 11:25:00,
2013-04-05 07:40:00,29.0,26.0,30.03,NNW,329,0.0,0.0,87,0.00,,,0.00,weatherlink.com 1.10,2013-04-05 11:40:00,
2013-04-05 07:55:00,30.2,27.0,30.03,NNW,329,0.0,1.0,87,0.00,,,0.00,weatherlink.com 1.10,2013-04-05 11:55:00,
2013-04-05 08:10:00,32.2,28.0,30.03,East,88,1.0,1.0,85,0.00,,,0.00,weatherlink.com 1.10,2013-04-05 12:10:00,
2013-04-05 08:25:00,35.4,30.0,30.02,ESE,121,1.0,2.0,82,0.00,,,0.00,weatherlink.com 1.10,2013-04-05 12:25:00,
2013-04-05 08:40:00,37.6,32.0,30.02,ESE,106,1.0,2.0,81,0.00,,,0.00,weatherlink.com 1.10,2013-04-05 12:40:00,
2013-04-05 08:55:00,40.9,35.0,30.02,ESE,115,0.0,2.0,78,0.00,,,0.00,weatherlink.com 1.10,2013-04-05 12:55:00,
2013-04-05 09:10:00,44.1,37.0,30.02,West,269,2.0,4.0,75,0.00,,,0.00,weatherlink.com 1.10,2013-04-05 13:10:00,
2013-04-05 09:25:00,45.1,37.0,30.02,SW,236,0.0,5.0,72,0.00,,,0.00,weatherlink.com 1.10,2013-04-05 13:25:00,
2013-04-05 09:40:00,46.7,37.0,30.02,SW,225,2.0,3.0,69,0.00,,,0.00,weatherlink.com 1.10,2013-04-05 13:40:00,
2013-04-05 09:55:00,47.7,37.0,30.02,SSW,210,2.0,5.0,66,0.00,,,0.00,weatherlink.com 1.10,2013-04-05 13:55:00,
2013-04-05 10:10:00,48.5,36.0,30.02,ENE,72,0.0,5.0,62,0.00,,,0.00,weatherlink.com 1.10,2013-04-05 14:10:00,
2013-04-05 10:25:00,49.6,36.0,30.02,ENE,63,1.0,4.0,59,0.00,,,0.00,weatherlink.com 1.10,2013-04-05 14:25:00,
2013-04-05 10:40:00,50.8,35.0,30.02,NW,311,0.0,5.0,55,0.00,,,0.00,weatherlink.com 1.10,2013-04-05 14:40:00,
2013-04-05 10:55:00,51.8,35.0,30.02,SW,231,2.0,4.0,53,0.00,,,0.00,weatherlink.com 1.10,2013-04-05 14:55:00,
2013-04-05 11:10:00,52.5,34.0,30.02,WSW,248,2.0,4.0,50,0.00,,,0.00,weatherlink.com 1.10,2013-04-05 15:10:00,
2013-04-05 11:25:00,53.9,32.0,30.02,WSW,253,1.0,7.0,44,0.00,,,0.00,weatherlink.com 1.10,2013-04-05 15:25:00,
2013-04-05 11:40:00,54.1,32.0,30.01,WNW,302,1.0,7.0,43,0.00,,,0.00,weatherlink.com 1.10,2013-04-05 15:40:00,
2013-04-05 11:56:00,55.3,30.0,30.01,NW,325,2.0,6.0,38,0.00,,,0.00,weatherlink.com 1.10,2013-04-05 15:56:00,
2013-04-05 12:11:00,57.0,31.0,30.00,ESE,108,2.0,5.0,38,0.00,,,0.00,weatherlink.com 1.10,2013-04-05 16:11:00,
2013-04-05 12:26:00,57.9,30.0,30.00,WSW,243,4.0,6.0,35,0.00,,,0.00,weatherlink.com 1.10,2013-04-05 16:26:00,
2013-04-05 12:41:00,57.8,27.0,29.99,WNW,300,2.0,4.0,31,0.00,,,0.00,weatherlink.com 1.10,2013-04-05 16:41:00,
2013-04-05 12:56:00,57.7,31.0,29.98,ENE,60,2.0,7.0,37,0.00,,,0.00,weatherlink.com 1.10,2013-04-05 16:56:00,
2013-04-05 13:56:00,59.3,31.0,29.96,NNE,30,0.0,7.0,35,0.00,,,0.00,weatherlink.com 1.10,2013-04-05 17:56:00,
2013-04-05 14:11:00,60.0,31.0,29.96,East,84,3.0,4.0,33,0.00,,,0.00,weatherlink.com 1.10,2013-04-05 18:11:00,
2013-04-05 14:26:00,59.6,30.0,29.96,SSW,193,2.0,11.0,33,0.00,,,0.00,weatherlink.com 1.10,2013-04-05 18:26:00,
2013-04-05 14:41:00,60.0,31.0,29.95,East,82,2.0,7.0,33,0.00,,,0.00,weatherlink.com 1.10,2013-04-05 18:41:00,
2013-04-05 14:56:00,60.4,29.0,29.96,ENE,65,3.0,6.0,31,0.00,,,0.00,weatherlink.com 1.10,2013-04-05 18:56:00,
2013-04-05 15:11:00,60.1,31.0,29.95,ENE,78,3.0,5.0,33,0.00,,,0.00,weatherlink.com 1.10,2013-04-05 19:11:00,
2013-04-05 15:26:00,59.6,31.0,29.95,East,89,1.0,9.0,34,0.00,,,0.00,weatherlink.com 1.10,2013-04-05 19:26:00,
2013-04-05 15:41:00,60.1,30.0,29.95,West,259,2.0,9.0,32,0.00,,,0.00,weatherlink.com 1.10,2013-04-05 19:41:00,
2013-04-05 15:56:00,61.1,31.0,29.95,East,93,1.0,4.0,32,0.00,,,0.00,weatherlink.com 1.10,2013-04-05 19:56:00,
2013-04-05 16:11:00,60.8,31.0,29.94,SSW,212,3.0,7.0,32,0.00,,,0.00,weatherlink.com 1.10,2013-04-05 20:11:00,
2013-04-05 16:41:00,59.2,28.0,29.94,ESE,104,2.0,8.0,31,0.00,,,0.00,weatherlink.com 1.10,2013-04-05 20:41:00,
2013-04-05 16:56:00,59.5,30.0,29.95,East,99,2.0,6.0,33,0.00,,,0.00,weatherlink.com 1.10,2013-04-05 20:56:00,
2013-04-05 17:26:00,58.4,31.0,29.96,NNW,347,2.0,6.0,35,0.00,,,0.00,weatherlink.com 1.10,2013-04-05 21:26:00,
2013-04-05 17:56:00,57.5,31.0,29.97,SE,131,2.0,6.0,36,0.00,,,0.00,weatherlink.com 1.10,2013-04-05 21:56:00,
2013-04-05 18:11:00,56.6,30.0,29.98,ENE,70,1.0,8.0,36,0.00,,,0.00,weatherlink.com 1.10,2013-04-05 22:11:00,
2013-04-05 18:26:00,55.9,30.0,29.99,NE,39,1.0,8.0,37,0.00,,,0.00,weatherlink.com 1.10,2013-04-05 22:26:00,
2013-04-05 18:41:00,55.2,30.0,29.99,NE,50,0.0,5.0,38,0.00,,,0.00,weatherlink.com 1.10,2013-04-05 22:41:00,
2013-04-05 18:56:00,54.2,31.0,30.00,SW,236,2.0,7.0,41,0.00,,,0.00,weatherlink.com 1.10,2013-04-05 22:56:00,
2013-04-05 19:11:00,53.5,30.0,30.01,ENE,62,2.0,3.0,41,0.00,,,0.00,weatherlink.com 1.10,2013-04-05 23:11:00,
2013-04-05 19:26:00,52.4,30.0,30.02,NE,38,0.0,7.0,42,0.00,,,0.00,weatherlink.com 1.10,2013-04-05 23:26:00,
2013-04-05 19:41:00,51.6,29.0,30.02,NE,49,2.0,2.0,42,0.00,,,0.00,weatherlink.com 1.10,2013-04-05 23:41:00,
2013-04-05 19:56:00,51.1,29.0,30.03,NW,321,1.0,6.0,42,0.00,,,0.00,weatherlink.com 1.10,2013-04-05 23:56:00,
2013-04-05 20:11:00,49.7,28.0,30.04,East,79,0.0,1.0,43,0.00,,,0.00,weatherlink.com 1.10,2013-04-06 00:11:00,
2013-04-05 20:41:00,47.8,27.0,30.06,ESE,111,1.0,1.0,44,0.00,,,0.00,weatherlink.com 1.10,2013-04-06 00:41:00,
2013-04-05 20:57:00,47.2,26.0,30.07,WNW,288,0.0,1.0,43,0.00,,,0.00,weatherlink.com 1.10,2013-04-06 00:57:00,
2013-04-05 21:11:00,46.5,26.0,30.08,ESE,122,0.0,2.0,45,0.00,,,0.00,weatherlink.com 1.10,2013-04-06 01:11:00,
2013-04-05 21:27:00,45.9,25.0,30.09,WSW,245,0.0,1.0,44,0.00,,,0.00,weatherlink.com 1.10,2013-04-06 01:27:00,
2013-04-05 21:42:00,45.6,26.0,30.10,SE,138,0.0,3.0,47,0.00,,,0.00,weatherlink.com 1.10,2013-04-06 01:42:00,
2013-04-05 21:57:00,44.5,25.0,30.11,ENE,68,3.0,3.0,47,0.00,,,0.00,weatherlink.com 1.10,2013-04-06 01:57:00,
2013-04-05 22:12:00,44.1,24.0,30.12,WSW,255,1.0,3.0,45,0.00,,,0.00,weatherlink.com 1.10,2013-04-06 02:12:00,
2013-04-05 22:27:00,43.5,24.0,30.12,ENE,68,0.0,1.0,46,0.00,,,0.00,weatherlink.com 1.10,2013-04-06 02:27:00,
2013-04-05 22:42:00,42.5,25.0,30.13,East,82,1.0,4.0,50,0.00,,,0.00,weatherlink.com 1.10,2013-04-06 02:42:00,
2013-04-05 22:57:00,42.2,25.0,30.13,North,349,1.0,4.0,51,0.00,,,0.00,weatherlink.com 1.10,2013-04-06 02:57:00,
2013-04-05 23:12:00,41.1,24.0,30.14,ENE,70,0.0,1.0,52,0.00,,,0.00,weatherlink.com 1.10,2013-04-06 03:12:00,
2013-04-05 23:27:00,40.2,25.0,30.14,NW,324,1.0,2.0,54,0.00,,,0.00,weatherlink.com 1.10,2013-04-06 03:27:00,
2013-04-05 23:42:00,39.4,24.0,30.15,NNW,336,0.0,2.0,55,0.00,,,0.00,weatherlink.com 1.10,2013-04-06 03:42:00,
2013-04-05 23:57:00,38.8,24.0,30.16,West,268,0.0,2.0,55,0.00,,,0.00,weatherlink.com 1.10,2013-04-06 03:57:00,